Time,TemperatureF,DewpointF,PressureIn,WindDirection,WindDirectionDegrees,WindSpeedMPH,WindSpeedGustMPH,Humidity,HourlyPrecipIn,Conditions,Clouds,dailyrainin,SolarRadiationWatts/m^2,SoftwareType,DateUTC
2013-03-27 00:01:00,27.0,22.0,-100.00,West,268,2.0,4.0,82,0.00,,,0.00,0.000000,,2013-03-27 05:01:00,
2013-03-27 00:23:00,27.0,22.0,-100.00,West,268,2.0,4.0,82,0.00,,,0.00,0.000000,,2013-03-27 05:23:00,
2013-03-27 00:33:00,27.0,22.0,-100.00,West,268,2.0,4.0,82,0.00,,,0.00,0.000000,,2013-03-27 05:33:00,
2013-03-27 00:42:00,27.0,22.0,-100.00,West,268,2.0,4.0,82,0.00,,,0.00,0.000000,,2013-03-27 05:42:00,
2013-03-27 00:52:00,27.0,22.0,-100.00,West,268,2.0,4.0,82,0.00,,,0.00,0.000000,,2013-03-27 05:52:00,
2013-03-27 01:01:00,27.0,22.0,-100.00,West,272,2.0,3.0,82,0.00,,,0.00,0.000000,,2013-03-27 06:01:00,
2013-03-27 01:32:00,27.0,22.0,-100.00,West,272,2.0,3.0,82,0.00,,,0.00,0.000000,,2013-03-27 06:32:00,
2013-03-27 01:42:00,27.0,22.0,-100.00,West,272,2.0,3.0,82,0.00,,,0.00,0.000000,,2013-03-27 06:42:00,
2013-03-27 01:53:00,27.0,22.0,-100.00,West,272,2.0,3.0,82,0.00,,,0.00,0.000000,,2013-03-27 06:53:00,
2013-03-27 02:01:00,28.0,20.0,-100.00,WNW,290,3.0,4.0,73,0.00,,,0.00,0.000000,,2013-03-27 07:01:00,
2013-03-27 02:32:00,28.0,20.0,-100.00,WNW,290,3.0,4.0,73,0.00,,,0.00,0.000000,,2013-03-27 07:32:00,
2013-03-27 02:43:00,28.0,20.0,-100.00,WNW,290,3.0,4.0,73,0.00,,,0.00,0.000000,,2013-03-27 07:43:00,
2013-03-27 02:53:00,28.0,20.0,-100.00,WNW,290,3.0,4.0,73,0.00,,,0.00,0.000000,,2013-03-27 07:53:00,
2013-03-27 03:01:00,28.0,20.0,-100.00,WNW,292,3.0,4.0,70,0.00,,,0.00,0.000000,,2013-03-27 08:01:00,
2013-03-27 03:32:00,28.0,20.0,-100.00,WNW,292,3.0,4.0,70,0.00,,,0.00,0.000000,,2013-03-27 08:32:00,
2013-03-27 03:43:00,28.0,20.0,-100.00,WNW,292,3.0,4.0,70,0.00,,,0.00,0.000000,,2013-03-27 08:43:00,
2013-03-27 03:52:00,28.0,20.0,-100.00,WNW,292,3.0,4.0,70,0.00,,,0.00,0.000000,,2013-03-27 08:52:00,
2013-03-27 04:01:00,28.0,20.0,-100.00,WNW,288,3.0,4.0,71,0.00,,,0.00,0.000000,,2013-03-27 09:01:00,
2013-03-27 04:33:00,28.0,20.0,-100.00,WNW,288,3.0,4.0,71,0.00,,,0.00,0.000000,,2013-03-27 09:33:00,
2013-03-27 04:42:00,28.0,20.0,-100.00,WNW,288,3.0,4.0,71,0.00,,,0.00,0.000000,,2013-03-27 09:42:00,
2013-03-27 04:52:00,28.0,20.0,-100.00,WNW,288,3.0,4.0,71,0.00,,,0.00,0.000000,,2013-03-27 09:52:00,
2013-03-27 05:01:00,27.0,19.0,-100.00,West,279,2.0,4.0,71,0.00,,,0.00,0.000000,,2013-03-27 10:01:00,
2013-03-27 05:32:00,27.0,19.0,-100.00,West,279,2.0,4.0,71,0.00,,,0.00,0.000000,,2013-03-27 10:32:00,
2013-03-27 05:42:00,27.0,19.0,-100.00,West,279,2.0,4.0,71,0.00,,,0.00,0.000000,,2013-03-27 10:42:00,
2013-03-27 05:53:00,27.0,19.0,-100.00,West,279,2.0,4.0,71,0.00,,,0.00,0.000000,,2013-03-27 10:53:00,
2013-03-27 06:01:00,26.0,21.0,-100.00,WNW,295,1.0,4.0,80,0.00,,,0.00,0.000000,,2013-03-27 11:01:00,
2013-03-27 06:32:00,26.0,21.0,-100.00,WNW,295,1.0,4.0,80,0.00,,,0.00,0.000000,,2013-03-27 11:32:00,
2013-03-27 06:42:00,26.0,21.0,-100.00,WNW,295,1.0,4.0,80,0.00,,,0.00,0.000000,,2013-03-27 11:42:00,
2013-03-27 06:53:00,26.0,21.0,-100.00,WNW,295,1.0,4.0,80,0.00,,,0.00,0.000000,,2013-03-27 11:53:00,
2013-03-27 07:01:00,28.0,18.0,-100.00,NW,307,3.0,5.0,66,0.00,,,0.00,1.000000,,2013-03-27 12:01:00,
2013-03-27 07:32:00,28.0,18.0,-100.00,NW,307,3.0,5.0,66,0.00,,,0.00,1.000000,,2013-03-27 12:32:00,
2013-03-27 07:43:00,28.0,18.0,-100.00,NW,307,3.0,5.0,66,0.00,,,0.00,1.000000,,2013-03-27 12:43:00,
2013-03-27 07:52:00,28.0,18.0,-100.00,NW,307,3.0,5.0,66,0.00,,,0.00,1.000000,,2013-03-27 12:52:00,
2013-03-27 08:01:00,30.0,19.0,-100.00,NW,310,2.0,4.0,63,0.00,,,0.00,27.000000,,2013-03-27 13:01:00,
2013-03-27 08:33:00,30.0,19.0,-100.00,NW,310,2.0,4.0,63,0.00,,,0.00,27.000000,,2013-03-27 13:33:00,
2013-03-27 08:42:00,30.0,19.0,-100.00,NW,310,2.0,4.0,63,0.00,,,0.00,27.000000,,2013-03-27 13:42:00,
2013-03-27 08:53:00,30.0,19.0,-100.00,NW,310,2.0,4.0,63,0.00,,,0.00,27.000000,,2013-03-27 13:53:00,
2013-03-27 09:01:00,33.0,18.0,-100.00,NW,323,4.0,6.0,54,0.00,,,0.00,101.000000,,2013-03-27 14:01:00,
2013-03-27 09:22:00,33.0,18.0,-100.00,NW,323,4.0,6.0,54,0.00,,,0.00,101.000000,,2013-03-27 14:22:00,
2013-03-27 09:32:00,33.0,18.0,-100.00,NW,323,4.0,6.0,54,0.00,,,0.00,101.000000,,2013-03-27 14:32:00,
2013-03-27 09:42:00,33.0,18.0,-100.00,NW,323,4.0,6.0,54,0.00,,,0.00,101.000000,,2013-03-27 14:42:00,
2013-03-27 09:52:00,33.0,18.0,-100.00,NW,323,4.0,6.0,54,0.00,,,0.00,101.000000,,2013-03-27 14:52:00,
2013-03-27 10:01:00,36.0,18.0,-100.00,North,360,4.0,8.0,48,0.00,,,0.00,209.000000,,2013-03-27 15:01:00,
2013-03-27 10:33:00,36.0,18.0,-100.00,North,360,4.0,8.0,48,0.00,,,0.00,209.000000,,2013-03-27 15:33:00,
2013-03-27 10:43:00,36.0,18.0,-100.00,North,360,4.0,8.0,48,0.00,,,0.00,209.000000,,2013-03-27 15:43:00,
2013-03-27 10:52:00,36.0,18.0,-100.00,North,360,4.0,8.0,48,0.00,,,0.00,209.000000,,2013-03-27 15:52:00,
2013-03-27 13:01:00,39.0,14.0,-100.00,NNW,334,7.0,14.0,35,-99.99,,,0.00,595.000000,,2013-03-27 18:01:00,
2013-03-27 13:33:00,39.0,14.0,-100.00,NNW,334,7.0,14.0,35,-99.99,,,0.00,595.000000,,2013-03-27 18:33:00,
2013-03-27 13:42:00,39.0,14.0,-100.00,NNW,334,7.0,14.0,35,-99.99,,,0.00,595.000000,,2013-03-27 18:42:00,
2013-03-27 13:53:00,39.0,14.0,-100.00,NNW,334,7.0,14.0,35,-99.99,,,0.00,595.000000,,2013-03-27 18:53:00,
2013-03-27 14:01:00,42.0,14.0,-100.00,NW,308,6.0,15.0,31,0.00,,,0.00,806.000000,,2013-03-27 19:01:00,
2013-03-27 14:42:00,42.0,14.0,-100.00,NW,308,6.0,15.0,31,0.00,,,0.00,806.000000,,2013-03-27 19:42:00,
2013-03-27 14:52:00,42.0,14.0,-100.00,NW,308,6.0,15.0,31,0.00,,,0.00,806.000000,,2013-03-27 19:52:00,
2013-03-27 15:01:00,42.0,13.0,-100.00,NW,322,7.0,14.0,30,0.00,,,0.00,793.000000,,2013-03-27 20:01:00,
2013-03-27 15:32:00,42.0,13.0,-100.00,NW,322,7.0,14.0,30,0.00,,,0.00,793.000000,,2013-03-27 20:32:00,
2013-03-27 15:43:00,42.0,13.0,-100.00,NW,322,7.0,14.0,30,0.00,,,0.00,793.000000,,2013-03-27 20:43:00,
2013-03-27 15:52:00,42.0,13.0,-100.00,NW,322,7.0,14.0,30,0.00,,,0.00,793.000000,,2013-03-27 20:52:00,
2013-03-27 16:01:00,41.0,13.0,-100.00,NNW,338,7.0,14.0,31,0.00,,,0.00,687.000000,,2013-03-27 21:01:00,
2013-03-27 16:32:00,41.0,13.0,-100.00,NNW,338,7.0,14.0,31,0.00,,,0.00,687.000000,,2013-03-27 21:32:00,
2013-03-27 16:43:00,41.0,13.0,-100.00,NNW,338,7.0,14.0,31,0.00,,,0.00,687.000000,,2013-03-27 21:43:00,
2013-03-27 16:52:00,41.0,13.0,-100.00,NNW,338,7.0,14.0,31,0.00,,,0.00,687.000000,,2013-03-27 21:52:00,
2013-03-27 17:01:00,41.0,12.0,-100.00,NW,325,5.0,13.0,30,0.00,,,0.00,523.000000,,2013-03-27 22:01:00,
2013-03-27 17:23:00,41.0,12.0,-100.00,NW,325,5.0,13.0,30,0.00,,,0.00,523.000000,,2013-03-27 22:23:00,
2013-03-27 17:33:00,41.0,12.0,-100.00,NW,325,5.0,13.0,30,0.00,,,0.00,523.000000,,2013-03-27 22:33:00,
2013-03-27 17:42:00,41.0,12.0,-100.00,NW,325,5.0,13.0,30,0.00,,,0.00,523.000000,,2013-03-27 22:42:00,
2013-03-27 17:53:00,41.0,12.0,-100.00,NW,325,5.0,13.0,30,0.00,,,0.00,523.000000,,2013-03-27 22:53:00,
2013-03-27 18:01:00,39.0,12.0,-100.00,North,352,5.0,12.0,32,0.00,,,0.00,326.000000,,2013-03-27 23:01:00,
2013-03-27 18:32:00,39.0,12.0,-100.00,North,352,5.0,12.0,32,0.00,,,0.00,326.000000,,2013-03-27 23:32:00,
2013-03-27 18:42:00,39.0,12.0,-100.00,North,352,5.0,12.0,32,0.00,,,0.00,326.000000,,2013-03-27 23:42:00,
2013-03-27 18:52:00,39.0,12.0,-100.00,North,352,5.0,12.0,32,0.00,,,0.00,326.000000,,2013-03-27 23:52:00,